MST,Max TemperatureF,Mean TemperatureF,Min TemperatureF,Max Dew PointF,MeanDew PointF,Min DewpointF,Max Humidity, Mean Humidity, Min Humidity, Max Sea Level PressureIn, Mean Sea Level PressureIn, Min Sea Level PressureIn, Max VisibilityMiles, Mean VisibilityMiles, Min VisibilityMiles, Max Wind SpeedMPH, Mean Wind SpeedMPH, Max Gust SpeedMPH,PrecipitationIn, CloudCover, Events, WindDirDegrees
2013-1-1,48,38,28,25,23,20,75,54,33,30.20,30.12,30.00,10,10,10,20,11,25,0.00,0,,194
2013-1-2,46,38,30,23,21,16,67,51,37,30.26,30.21,30.14,10,10,10,7,4,,0.00,1,,326
2013-1-3,34,31,28,29,27,18,100,87,54,30.45,30.38,30.23,10,3,0,13,7,,0.14,8,Fog-Snow,41
2013-1-4,32,28,23,28,26,21,100,91,82,30.42,30.32,30.23,10,5,0,10,3,,0.04,7,Fog-Snow,155
2013-1-5,45,31,17,32,21,14,100,85,56,30.38,30.26,30.20,10,5,0,12,3,,0.00,1,Fog,59
2013-1-6,48,37,26,26,24,19,86,64,37,30.46,30.33,30.19,10,10,10,12,7,,0.00,0,,238
2013-1-7,50,40,30,31,28,24,88,70,44,30.17,30.03,29.92,10,10,10,7,3,,0.00,0,,150
2013-1-8,50,40,30,34,30,27,93,78,52,30.13,29.96,29.90,10,9,6,7,5,,0.00,1,,323
2013-1-9,53,44,35,37,30,24,89,65,32,30.30,30.16,30.04,10,10,5,23,17,30,0.44,8,Rain,330
2013-1-10,57,47,37,39,36,34,93,74,47,30.10,29.94,29.77,10,10,10,15,11,22,0.00,4,Rain,271
2013-1-11,66,55,39,38,30,12,79,47,23,29.79,29.70,29.62,10,10,10,24,12,37,0.00,0,,252
2013-1-12,48,40,33,19,11,6,48,33,19,29.99,29.89,29.81,10,10,10,17,10,26,0.00,3,,287
2013-1-13,39,29,19,20,17,12,78,60,36,30.19,30.10,30.02,10,10,10,13,7,18,0.00,0,,142
2013-1-14,30,26,21,20,17,13,85,69,56,30.22,30.16,30.08,10,10,10,10,6,,0.00,5,,144
2013-1-15,37,28,19,18,14,12,81,61,36,30.30,30.23,30.15,10,10,10,9,6,,0.00,0,,310
2013-1-16,54,36,17,23,15,6,81,47,19,30.36,30.30,30.20,10,10,10,13,6,,0.00,0,,293
2013-1-17,57,42,26,25,21,17,78,52,24,30.52,30.43,30.38,10,10,10,12,5,,0.00,0,,280
2013-1-18,64,44,25,28,24,18,85,58,17,30.38,30.25,30.12,10,10,8,13,5,,0.00,0,,181
2013-1-19,68,48,27,25,20,12,85,44,11,30.23,30.16,30.08,10,10,10,16,5,18,0.00,0,,326
2013-1-20,66,47,28,22,17,13,61,38,14,30.24,30.13,30.01,10,10,10,12,8,,0.00,0,,280
2013-1-21,53,42,30,24,21,14,75,46,30,30.30,30.20,30.14,10,10,10,16,11,,0.00,0,,330
2013-1-22,66,44,23,28,25,19,85,57,20,30.24,30.16,30.07,10,10,10,9,4,,0.00,0,,229
2013-1-23,75,52,28,27,20,10,79,42,8,30.26,30.16,30.09,10,10,10,12,5,17,0.00,0,,202
2013-1-24,78,56,35,28,24,18,59,32,12,30.18,30.09,29.99,10,10,10,21,7,32,0.00,0,,268
2013-1-25,72,61,50,40,35,29,66,41,25,30.10,30.03,29.99,10,10,10,13,7,,0.00,1,,256
2013-1-26,62,54,46,40,38,35,68,56,41,30.03,29.95,29.86,10,10,10,10,6,,0.00,4,,155
2013-1-27,72,58,44,44,39,36,83,52,28,29.91,29.87,29.81,10,10,8,21,9,28,0.00,2,,250
2013-1-28,73,56,39,40,31,22,79,42,15,29.85,29.76,29.65,10,10,10,22,8,34,0.00,1,,225
2013-1-29,55,46,36,33,21,5,56,38,22,29.95,29.72,29.63,10,10,7,33,18,47,0.00,2,,261
2013-1-30,53,40,26,23,9,-6,78,36,10,30.17,30.09,29.98,10,10,10,23,11,29,0.00,0,,278
2013-1-31,62,44,27,16,12,8,47,27,13,30.21,30.14,30.10,10,10,10,10,4,,0.00,0,,242